Weather History for Deering, AK

Change the Weather History Date:

Thursday, February 28, 2013

  Actual Average (PAOT) Record (PAOT)
Temperature  
Mean Temperature -10 °F -  
Max Temperature -4 °F - 35 °F (1943)
Min Temperature -15 °F -7 °F -39 °F (1956)
Degree Days  
Heating Degree Days 74 65  
Month to date heating degree days 1843  
Since 1 July heating degree days 10242  
Cooling Degree Days 0    
Month to date cooling degree days  
Year to date cooling degree days  
Moisture  
Dew Point -15 °F    
Average Humidity 74    
Maximum Humidity 79    
Minimum Humidity 71    
Precipitation  
Precipitation 0.00 in 0.02 in 0.47 in (2009)
Month to date precipitation 0.66  
Year to date precipitation 1.28  
Snow  
Snow 0.00 in 0.30 in 4.70 in (2009)
Month to date snowfall 9.6  
Since 1 July snowfall 47.6  
Snow Depth -    
Sea Level Pressure  
Sea Level Pressure 29.57 in    
Wind  
Wind Speed 9 mph (WSW)    
Max Wind Speed 16 mph    
Max Gust Speed -    
Visibility 10 miles    
Events      
T = Trace of Precipitation, MM = Missing Value Source: NWS Daily Summary

Daily Weather History Graph

Daily Weather History Graph

Search for Another Location

Airport:

Trip Planner

Search our weather history database for the weather conditions in past years. The results will help you decide how hot, cold, wet, or windy it might be!

Date:

Astronomy

Feb. 28, 2013 Rise Set
Actual Time 9:05 AM AKST 7:02 PM AKST
Civil Twilight 8:13 AM AKST 7:54 PM AKST
Nautical Twilight 7:14 AM AKST 8:54 PM AKST
Astronomical Twilight 6:13 AM AKST 9:56 PM AKST
Moon No Moon Rise 8:46 AM AKST (2/28)
Length of Visible Light 11h 40m
Length of Day
9h 56m
Waning Gibbous, 90% of the Moon is Illuminated
Feb 28
Waning Gibbous
Mar 4
Last Quarter
Mar 11
New
Mar 19
First Quarter
Mar 27
Full

Hourly Weather History & Observations

Time (AKST) Temp. Windchill Dew Point Humidity Pressure Visibility Wind Dir Wind Speed Gust Speed Precip Events Conditions
12:53 AM -8.0 °F -28.0 °F -13.0 °F 79% 29.44 in 10.0 mi West 12.7 mph - N/A   Mostly Cloudy
1:53 AM -8.0 °F -28.0 °F -13.0 °F 79% 29.44 in 10.0 mi West 12.7 mph - N/A   Scattered Clouds
2:53 AM -7.1 °F -19.9 °F -13.0 °F 75% 29.45 in 10.0 mi SW 5.8 mph - N/A   Overcast
3:53 AM -8.0 °F -23.9 °F -14.1 °F 75% 29.45 in 10.0 mi West 8.1 mph - N/A   Mostly Cloudy
4:53 AM -9.0 °F -26.4 °F -14.1 °F 79% 29.46 in 10.0 mi West 9.2 mph - N/A   Overcast
5:53 AM -11.0 °F -22.8 °F -16.1 °F 78% 29.47 in 10.0 mi SW 4.6 mph - N/A   Clear
6:53 AM -9.9 °F -24.9 °F -16.1 °F 74% 29.48 in 10.0 mi WSW 6.9 mph - N/A   Mostly Cloudy
7:53 AM -9.9 °F -26.3 °F -15.0 °F 78% 29.49 in 10.0 mi WSW 8.1 mph - N/A   Overcast
8:05 AM -9.4 °F -24.3 °F -16.6 °F 71% 29.49 in 10.0 mi WSW 6.9 mph - N/A   Overcast
8:21 AM -9.4 °F -20.9 °F -16.6 °F 71% 29.49 in 10.0 mi SW 4.6 mph - N/A   Overcast
8:53 AM -9.9 °F -26.3 °F -16.1 °F 74% 29.51 in 10.0 mi SW 8.1 mph - N/A   Overcast
9:02 AM -9.4 °F -22.7 °F -16.6 °F 71% 29.51 in 10.0 mi SW 5.8 mph - N/A   Overcast
9:25 AM -11.2 °F -20.6 °F -16.6 °F 77% 29.51 in 10.0 mi SW 3.5 mph - N/A   Scattered Clouds
9:53 AM -9.9 °F -23.4 °F -17.0 °F 71% 29.52 in 10.0 mi WSW 5.8 mph - N/A   Mostly Cloudy
10:22 AM -9.4 °F -26.8 °F -16.6 °F 71% 29.53 in 10.0 mi WSW 9.2 mph - N/A   Mostly Cloudy
10:53 AM -9.0 °F -25.2 °F -16.1 °F 71% 29.54 in 10.0 mi WSW 8.1 mph - N/A   Mostly Cloudy
11:53 AM -8.0 °F -23.9 °F -14.1 °F 75% 29.56 in 10.0 mi WSW 8.1 mph - N/A   Overcast
12:53 PM -7.1 °F -21.4 °F -14.1 °F 72% 29.57 in 10.0 mi WSW 6.9 mph - N/A   Overcast
1:53 PM -7.1 °F -26.8 °F -13.0 °F 75% 29.59 in 10.0 mi West 12.7 mph - N/A   Overcast
2:53 PM -6.0 °F -24.6 °F -11.9 °F 75% 29.59 in 10.0 mi West 11.5 mph - N/A   Overcast
3:53 PM -5.1 °F -25.1 °F -11.0 °F 76% 29.61 in 10.0 mi West 13.8 mph - N/A   Overcast
4:53 PM -4.0 °F -23.7 °F -9.9 °F 76% 29.63 in 10.0 mi West 13.8 mph - N/A   Overcast
5:53 PM -5.1 °F -25.1 °F -11.0 °F 76% 29.65 in 10.0 mi West 13.8 mph - N/A   Scattered Clouds
6:53 PM -8.0 °F -30.3 °F -14.1 °F 75% 29.68 in 10.0 mi West 16.1 mph - N/A   Clear
7:53 PM -11.0 °F -31.8 °F -17.0 °F 75% 29.71 in 10.0 mi WSW 12.7 mph - N/A   Clear
8:53 PM -11.9 °F -29.9 °F -18.0 °F 74% 29.74 in 10.0 mi SW 9.2 mph - N/A   Scattered Clouds
9:53 PM -15.0 °F -31.0 °F -20.9 °F 75% 29.77 in 10.0 mi SW 6.9 mph - N/A   Clear
10:53 PM -13.0 °F -30.0 °F -20.0 °F 71% 29.80 in 10.0 mi WSW 8.1 mph - N/A   Scattered Clouds
11:53 PM -13.0 °F -32.4 °F -20.0 °F 71% 29.82 in 10.0 mi WSW 10.4 mph - N/A   Clear